Temperature
8 9 9 9 9 9 7 8 9 11 12 11 12 12 12 12 11 9 8 7 5 4 3 2 2 1 1 2 2 2 3 3 3 4 4 4 4 4 5 5 5 5 5 5
6 8 8 8 9 9 8 9 9 10 11 13 13 12 12 11 10 9 8 6 5 3 2 2 1 1 1 1 1 2 2 3 3 3 3 3 3 4 4 4 4 4 4 4
7 8 8 6 8 9 9 9 9 9 10 12 12 12 11 10 9 8 7 6 4 3 2 2 1 1 1 1 1 1 2 2 2 2 3 3 3 3 3 3 2 2 2 2
7 7 5 9 11 10 9 9 10 10 11 12 11 11 10 10 9 8 7 5 4 3 3 2 1 1 0 1 1 1 1 1 1 1 2 2 2 2 1 1 1 1 1 0
7 7 8 10 9 10 9 9 10 10 11 11 11 10 9 9 8 8 7 6 5 4 3 2 2 1 1 1 1 1 1 1 1 1 1 1 1 1 0 0 0 0 -0 -0
8 7 8 10 10 10 10 9 11 10 10 11 10 8 8 8 8 7 7 6 5 4 3 3 2 2 2 1 1 1 1 1 1 1 1 1 1 0 0 0 -0 -0 -0 -0
7 7 8 10 9 9 8 9 10 11 10 10 10 9 9 8 7 7 6 6 5 4 4 3 3 3 2 2 1 1 1 1 1 1 1 1 0 0 -0 -0 -0 -0 -1 -1
7 7 7 9 9 9 9 10 10 10 10 10 9 9 8 7 7 7 6 6 5 5 4 4 3 3 3 2 2 1 1 1 1 1 1 0 0 0 -0 -1 -1 -1 -1 -1
8 8 10 10 10 10 10 9 9 9 9 9 8 8 7 7 6 6 6 6 5 5 4 4 3 3 3 2 2 1 1 1 1 1 1 0 0 -0 -0 -1 -1 -1 -2 -2
9 10 10 10 10 9 9 9 8 8 8 8 8 8 7 7 6 6 6 6 5 5 4 4 4 3 3 2 2 2 1 1 1 1 1 0 0 -0 -0 -1 -1 -2 -2 -3
8 9 10 10 10 9 8 8 8 8 8 8 8 7 7 7 6 6 6 6 5 5 5 4 4 4 3 3 2 2 1 1 1 1 1 0 0 -0 -1 -1 -2 -2 -3 -3
8 10 9 10 9 9 8 7 7 8 8 7 7 7 7 6 6 6 6 6 5 5 5 4 4 4 3 3 2 2 2 1 1 1 0 0 -0 -0 -1 -1 -2 -3 -3 -4
9 9 9 8 8 8 7 7 7 7 7 7 7 7 7 6 6 6 5 5 5 5 5 4 4 4 3 3 2 2 2 1 1 0 0 -0 -0 -1 -1 -2 -2 -3 -3 -4
8 8 7 7 7 7 7 7 6 6 6 6 6 6 6 6 5 5 5 5 5 5 4 4 4 4 3 3 2 2 1 1 1 0 0 -0 -1 -1 -2 -2 -3 -3 -4 -5
6 6 7 6 6 6 6 6 5 5 5 5 5 5 5 5 5 5 5 4 4 4 4 4 4 4 3 3 2 2 1 1 0 0 -0 -1 -1 -2 -2 -3 -3 -4 -5 -5
5 5 5 5 5 4 4 4 4 4 4 4 4 4 4 5 4 4 4 4 4 4 4 4 3 3 3 2 2 1 1 1 0 -0 -1 -1 -1 -2 -2 -3 -3 -4 -5 -6
4 3 4 4 3 3 3 3 3 3 3 3 3 3 3 4 4 4 3 3 3 3 3 3 3 3 2 2 1 1 1 0 -0 -0 -1 -1 -2 -2 -3 -3 -4 -4 -5 -6
3 3 3 3 3 3 2 2 2 2 2 2 2 2 3 3 3 3 3 2 2 2 2 2 2 2 1 1 1 0 0 -0 -1 -1 -1 -1 -2 -2 -3 -3 -4 -5 -5 -6
2 2 2 2 2 2 2 2 2 2 2 2 2 2 2 2 2 2 2 2 2 2 2 1 1 1 1 0 -0 -0 -1 -1 -1 -1 -1 -2 -2 -2 -3 -3 -4 -5 -6 -6
1 1 1 1 1 1 1 1 2 2 2 1 2 2 2 2 2 1 1 1 1 1 1 1 1 0 0 -0 -1 -1 -1 -1 -1 -2 -2 -2 -2 -3 -3 -4 -4 -5 -5 -6
0 1 1 1 1 1 1 1 1 1 1 1 1 1 1 1 1 1 1 1 1 0 0 0 -0 -0 -1 -1 -1 -1 -1 -1 -2 -2 -2 -2 -2 -3 -3 -4 -4 -5 -5 -6
0 0 1 1 1 1 1 1 1 1 1 1 1 1 1 1 1 1 0 0 0 -0 -0 -0 -0 -1 -1 -1 -1 -2 -2 -2 -2 -2 -2 -2 -3 -3 -3 -4 -4 -5 -5 -5
0 0 1 1 1 0 0 0 0 0 0 0 0 0 0 0 0 0 0 -0 -0 -1 -1 -1 -1 -1 -1 -1 -2 -2 -2 -2 -2 -2 -3 -3 -3 -3 -4 -4 -4 -5 -5 -5
0 0 0 0 0 0 -0 -0 -0 -0 -0 -0 -0 -0 -0 -0 -0 -0 -0 -0 -0 -1 -1 -1 -1 -1 -2 -2 -2 -2 -2 -2 -3 -3 -3 -3 -3 -3 -4 -4 -4 -5 -5 -5
-0 -0 -0 -0 -0 -0 -1 -1 -1 -1 -1 -1 -1 -1 -1 -1 -1 -1 -1 -1 -1 -1 -1 -1 -1 -2 -2 -2 -2 -2 -2 -3 -3 -3 -3 -3 -3 -4 -4 -4 -4 -5 -5 -5
-0 -0 -1 -1 -1 -1 -1 -1 -1 -1 -1 -1 -1 -1 -1 -1 -1 -1 -1 -1 -1 -1 -1 -1 -2 -2 -2 -2 -2 -3 -3 -3 -3 -3 -3 -4 -4 -4 -4 -4 -5 -5 -5 -5
-1 -1 -1 -1 -1 -1 -1 -2 -2 -2 -2 -2 -2 -2 -2 -2 -2 -2 -2 -2 -2 -2 -2 -2 -2 -2 -2 -2 -3 -3 -3 -3 -4 -4 -4 -4 -4 -4 -4 -5 -5 -5 -5 -6
Wind_Speed
3 4 4 5 8 11 9 8 5 3 5 9 9 7 6 6 7 6 6 6 5 4 4 5 5 5 5 6 6 7 7 7 8 8 8 8 8 9 10 10 10 9 10 10
1 2 2 4 7 10 11 12 9 6 4 1 5 5 4 5 5 5 6 6 5 5 5 4 4 4 5 5 5 6 7 7 7 7 8 8 8 9 10 10 10 10 10 10
2 5 2 7 13 14 11 8 10 11 7 4 5 4 4 4 4 6 7 6 5 6 5 4 4 3 4 4 5 6 6 7 7 7 8 8 9 10 10 10 10 10 10 10
1 1 6 5 2 8 12 11 10 7 6 5 3 3 3 4 6 7 8 7 6 6 5 4 4 3 4 5 6 6 6 7 7 7 8 8 9 9 9 9 9 9 10 10
3 4 7 5 5 4 6 7 12 11 6 2 2 1 2 5 6 7 8 7 7 6 6 5 4 4 5 6 6 6 6 7 7 7 7 8 9 8 8 8 9 8 8 9
3 3 4 2 5 4 3 4 7 10 8 6 4 2 4 7 8 8 8 7 7 6 6 5 4 5 6 6 6 6 5 6 6 6 7 7 7 7 7 7 8 7 8 7
4 4 5 3 6 5 3 1 6 7 7 6 4 3 7 9 8 8 8 8 7 7 6 5 5 5 6 5 4 4 5 5 6 6 6 6 6 5 5 6 6 6 5 4
5 6 6 6 6 3 2 5 7 7 6 5 5 7 7 8 9 9 8 8 7 6 6 5 5 6 6 5 4 4 4 5 5 4 4 4 5 4 4 4 4 3 4 3
6 5 2 6 4 5 5 5 4 4 5 4 4 5 7 8 8 9 9 8 7 7 7 6 6 7 7 6 6 5 5 5 5 4 3 3 3 3 2 2 2 2 2 2
3 4 6 7 5 5 5 5 4 4 3 2 3 4 6 8 8 9 9 9 8 8 8 7 7 7 7 7 7 6 6 5 4 4 4 4 4 4 3 3 3 2 2 2
5 4 2 6 7 7 5 5 4 3 1 2 3 4 5 7 9 9 9 9 9 8 8 8 8 7 8 7 7 6 6 5 4 4 4 5 5 4 5 4 4 3 2 2
5 4 5 4 6 7 6 5 4 1 1 2 3 4 4 6 7 8 9 9 9 9 8 9 9 8 8 7 7 7 6 5 4 3 4 4 4 4 5 4 5 5 4 3
2 3 5 7 7 7 5 4 3 1 3 3 3 4 4 4 6 8 9 10 10 10 9 9 9 9 8 7 7 7 6 6 5 4 4 3 3 4 2 1 2 1 1 2
2 3 5 5 5 5 4 2 2 3 4 4 3 3 3 3 4 7 9 10 9 9 9 9 9 9 8 8 7 7 7 7 6 4 4 4 3 2 1 1 2 2 3 3
2 4 5 5 5 4 2 1 2 3 3 3 3 3 3 4 5 6 6 8 9 9 9 9 9 9 9 8 8 7 7 5 5 4 4 4 3 2 1 1 2 2 2 3
4 4 4 4 3 2 2 2 3 4 4 4 3 4 4 5 5 5 6 8 9 11 10 10 9 9 9 9 8 6 6 8 7 5 4 3 3 3 2 2 2 3 3 2
3 3 3 2 1 1 2 3 4 5 5 6 5 4 4 3 4 4 6 7 7 7 8 9 9 9 9 9 8 6 6 6 8 5 4 4 3 3 3 2 3 3 3 3
5 4 4 3 3 3 4 4 5 5 6 6 5 4 3 4 5 5 5 6 6 5 7 7 8 9 9 8 7 6 6 6 5 5 4 4 4 3 3 3 3 4 3 4
4 4 4 4 4 3 4 4 5 6 6 5 4 3 3 3 3 3 5 6 7 7 6 8 12 10 9 10 9 6 6 6 6 5 4 5 5 3 3 3 4 4 4 3
5 5 5 5 4 4 4 5 5 5 5 5 4 2 2 1 1 3 5 5 5 4 6 9 10 9 9 10 11 6 6 7 6 5 5 5 4 4 4 4 4 4 4 4
5 5 5 4 4 4 4 5 5 5 5 4 4 3 2 1 1 2 3 4 3 4 7 11 9 8 8 10 11 6 7 7 6 6 6 5 5 5 4 4 4 4 4 4
4 4 5 4 4 4 4 4 5 5 5 5 4 3 2 2 1 1 3 3 3 6 6 6 6 9 12 12 8 7 7 7 6 5 5 5 5 5 5 5 4 4 4 4
4 4 4 5 4 4 4 5 6 5 5 5 5 4 3 2 2 2 3 2 3 7 6 5 9 13 16 10 7 8 7 7 7 6 6 6 5 5 5 5 5 4 4 5
3 3 3 4 4 4 5 5 6 4 5 4 4 4 3 3 2 2 2 3 5 7 5 7 12 14 15 7 7 7 7 7 6 6 6 5 5 5 5 5 5 5 5 6
1 2 2 3 3 3 3 5 5 4 5 4 4 4 3 2 2 3 2 3 5 5 4 7 11 13 9 6 7 7 6 6 6 6 6 5 5 5 5 5 5 5 5 5
1 2 2 2 2 2 3 3 3 3 4 4 4 3 3 3 3 3 2 3 4 4 3 3 5 8 6 6 7 6 6 6 7 6 6 6 6 6 5 5 6 5 5 6
3 3 2 3 2 2 2 2 3 3 3 4 4 4 4 4 3 3 3 2 2 2 3 3 4 4 5 6 6 6 5 5 6 6 6 6 6 5 6 6 5 5 5 5
Wind_Direction
30 52 117 189 195 193 196 209 216 232 174 174 175 165 142 133 131 134 130 116 102 82 66 59 43 23 16 10 2 7 22 28 24 21 23 25 31 38 39 40 45 48 54 54
252 191 191 239 228 210 208 221 241 270 290 89 115 119 130 129 135 146 134 122 113 102 83 65 48 29 23 20 17 27 34 34 33 34 36 37 42 48 50 48 48 52 57 60
201 157 231 248 223 211 203 197 207 225 226 175 153 152 135 132 150 144 129 124 116 104 93 82 69 48 36 33 37 43 43 42 43 46 48 47 53 58 59 57 58 59 62 67
159 170 240 234 81 189 207 214 208 211 198 178 150 120 128 145 149 138 135 133 124 115 114 107 93 79 68 59 57 55 52 48 47 52 57 56 59 61 61 62 63 63 63 64
203 247 265 202 166 165 183 220 208 209 210 192 100 50 155 119 116 127 129 125 122 125 130 121 106 94 87 76 69 64 59 56 53 57 64 64 64 60 60 69 68 65 65 64
230 256 269 92 131 144 164 240 185 181 185 185 162 210 186 138 121 122 124 126 132 137 132 124 114 104 94 83 79 70 65 65 64 66 72 74 73 70 70 75 78 79 75 72
242 254 271 128 137 138 183 168 114 132 145 152 164 166 147 143 140 140 138 138 140 141 135 131 129 118 109 102 92 87 85 83 80 79 82 85 84 82 85 87 88 86 85 84
203 227 245 139 145 178 109 83 83 97 107 114 113 120 142 153 154 153 151 153 153 147 143 145 148 140 133 137 142 129 115 106 103 103 106 108 106 106 109 110 104 102 96 83
201 213 140 158 149 105 91 96 89 93 100 116 142 165 170 168 167 168 165 166 164 159 158 167 173 163 157 165 162 151 134 125 125 123 117 120 120 118 106 95 94 93 95 95
256 221 174 172 159 126 111 109 103 101 111 148 189 189 181 178 178 177 175 173 170 169 172 180 183 175 162 162 165 155 145 142 138 127 112 82 60 59 65 49 56 65 75 75
244 255 196 185 178 159 140 129 122 115 138 207 231 223 199 190 187 184 181 176 175 181 183 180 174 167 156 162 164 153 145 140 130 123 118 99 76 63 81 65 70 77 68 53
224 221 196 187 158 136 135 129 107 82 283 247 233 244 226 202 190 183 181 176 179 185 184 174 167 164 163 166 165 154 152 156 155 150 138 136 131 101 82 107 81 70 63 48
262 44 82 96 90 85 93 84 58 339 293 285 264 245 239 215 190 180 181 183 187 188 181 172 169 169 168 166 165 161 163 163 159 158 158 158 152 155 172 173 162 130 69 7
37 102 126 121 115 92 77 36 333 298 286 274 272 264 246 225 195 187 190 189 183 179 178 174 174 175 168 162 161 161 158 160 159 164 165 165 162 163 168 198 255 254 221 234
41 55 98 99 103 108 90 2 314 300 295 278 258 250 244 233 218 205 191 173 168 174 180 179 180 175 162 161 163 162 155 160 166 161 157 153 150 152 177 229 266 278 267 255
122 97 95 99 98 83 48 356 326 318 321 309 290 261 243 237 226 202 180 166 174 188 188 185 184 170 161 162 163 163 163 167 162 156 157 156 159 177 206 234 258 272 276 269
129 150 142 130 116 62 24 359 331 317 311 304 293 279 247 228 215 197 185 178 183 188 184 184 179 165 165 167 166 164 157 165 166 158 169 173 177 194 210 226 252 266 269 271
56 65 67 61 46 17 357 345 330 318 307 301 294 276 239 221 221 209 187 168 166 173 180 176 166 164 170 171 167 160 159 163 169 174 172 174 184 195 207 229 253 265 267 281
66 60 52 48 37 14 347 337 329 320 318 317 305 280 254 236 224 193 167 169 183 195 192 176 174 171 174 177 167 158 160 164 170 173 172 190 195 198 213 232 247 256 261 262
67 56 50 45 38 23 4 350 338 337 346 343 338 329 304 271 214 177 177 197 208 202 173 174 175 176 176 177 170 164 168 169 173 175 176 184 195 208 217 229 239 248 255 259
65 58 52 41 30 36 24 0 351 352 353 358 359 352 335 314 215 184 193 219 204 166 170 180 179 178 176 178 176 171 174 174 177 180 184 192 201 210 218 228 238 246 250 256
60 53 44 31 26 29 21 15 5 357 0 4 2 357 347 327 292 247 233 238 198 183 179 182 178 183 183 179 176 176 179 179 180 181 186 193 200 210 219 224 231 241 248 253
51 43 34 23 9 1 20 26 10 359 356 354 351 344 327 302 262 248 266 244 201 203 195 191 191 191 189 181 178 181 182 183 184 186 191 196 202 207 214 222 226 233 242 250
37 36 23 359 353 11 13 360 347 340 338 339 347 346 336 321 300 256 262 254 229 220 210 202 200 199 192 182 180 184 186 187 187 186 189 192 198 204 211 219 226 233 241 251
2 345 350 353 359 355 342 333 336 347 352 347 348 353 350 330 304 298 277 261 252 235 215 211 209 205 193 178 183 188 188 192 190 185 187 192 199 206 215 220 225 233 241 249
267 294 299 293 292 305 315 324 329 333 338 338 335 336 336 328 316 310 292 274 267 242 214 203 207 207 194 186 189 190 189 198 205 197 192 196 203 206 213 220 229 233 242 248
241 252 265 272 261 259 282 299 308 315 322 322 317 316 320 319 315 311 300 284 275 249 216 204 205 202 193 187 187 188 188 190 192 190 191 198 203 209 214 219 225 234 241 248
Height
1468 1466 1468 1470 1471 1474 1479 1478 1478 1470 1468 1469 1470 1472 1474 1476 1478 1480 1481 1481 1480 1480 1479 1477 1476 1474 1473 1471 1470 1469 1468 1466 1465 1464 1462 1461 1460 1459 1459 1458 1457 1457 1456 1455
1474 1469 1470 1471 1469 1469 1472 1473 1472 1470 1469 1465 1467 1470 1472 1474 1476 1477 1478 1478 1478 1477 1477 1476 1474 1473 1471 1470 1469 1468 1466 1465 1464 1463 1462 1461 1460 1459 1458 1457 1457 1456 1455 1454
1471 1468 1470 1473 1463 1463 1464 1463 1467 1470 1468 1465 1467 1469 1471 1472 1473 1474 1475 1475 1475 1475 1475 1474 1473 1472 1470 1469 1468 1467 1466 1465 1463 1462 1461 1460 1460 1459 1459 1458 1457 1457 1456 1455
1471 1473 1479 1457 1449 1451 1456 1458 1460 1460 1461 1462 1465 1467 1468 1469 1470 1471 1472 1473 1473 1473 1473 1473 1472 1471 1470 1469 1468 1467 1466 1465 1464 1463 1462 1461 1461 1460 1460 1460 1459 1459 1458 1458
1469 1468 1460 1450 1450 1450 1453 1454 1453 1456 1458 1460 1463 1465 1466 1467 1468 1469 1470 1471 1471 1472 1472 1472 1471 1471 1470 1469 1469 1468 1467 1466 1465 1465 1464 1463 1463 1462 1462 1462 1462 1461 1461 1460
1465 1467 1459 1450 1448 1448 1452 1453 1446 1450 1455 1459 1461 1466 1465 1465 1466 1467 1468 1469 1470 1471 1471 1471 1471 1471 1471 1470 1470 1470 1469 1468 1468 1467 1466 1466 1465 1465 1465 1465 1464 1464 1463 1463
1465 1464 1456 1448 1448 1450 1457 1451 1447 1449 1453 1456 1459 1462 1463 1463 1465 1466 1467 1468 1469 1470 1471 1471 1471 1472 1472 1472 1471 1471 1471 1471 1470 1470 1469 1468 1468 1467 1467 1467 1466 1466 1465 1464
1461 1463 1459 1448 1449 1451 1451 1449 1449 1451 1454 1456 1458 1459 1461 1462 1463 1464 1465 1466 1468 1469 1470 1471 1472 1472 1472 1472 1473 1472 1472 1472 1472 1471 1471 1470 1470 1469 1469 1468 1468 1467 1466 1465
1452 1453 1446 1446 1447 1448 1449 1450 1451 1453 1454 1456 1457 1458 1459 1460 1461 1462 1463 1464 1466 1467 1469 1470 1471 1472 1472 1473 1473 1473 1473 1473 1473 1472 1472 1472 1471 1471 1470 1470 1469 1468 1466 1465
1445 1443 1443 1445 1446 1447 1449 1450 1451 1452 1453 1454 1455 1456 1457 1457 1458 1459 1460 1462 1464 1465 1467 1468 1470 1470 1471 1472 1472 1472 1472 1473 1473 1473 1473 1472 1472 1471 1471 1470 1469 1468 1466 1464
1443 1441 1441 1442 1444 1445 1447 1448 1450 1450 1451 1452 1453 1453 1454 1454 1455 1456 1457 1459 1461 1462 1464 1466 1467 1468 1469 1470 1471 1471 1472 1472 1472 1472 1472 1472 1472 1471 1471 1470 1469 1467 1465 1464
1441 1437 1438 1439 1441 1443 1445 1446 1447 1448 1449 1450 1450 1450 1450 1451 1451 1452 1453 1455 1457 1459 1461 1463 1464 1466 1467 1468 1469 1469 1470 1470 1471 1471 1471 1471 1471 1470 1470 1469 1467 1466 1464 1462
1436 1435 1436 1437 1439 1441 1443 1444 1445 1446 1446 1446 1447 1447 1447 1447 1447 1448 1449 1450 1452 1455 1457 1459 1461 1463 1464 1466 1467 1467 1468 1469 1469 1470 1470 1470 1469 1468 1468 1467 1466 1464 1462 1459
1433 1434 1435 1437 1438 1440 1441 1442 1442 1443 1443 1443 1443 1443 1443 1443 1443 1443 1444 1446 1448 1450 1453 1455 1457 1459 1461 1463 1464 1465 1466 1466 1467 1467 1468 1468 1467 1466 1465 1464 1462 1460 1458 1456
1431 1432 1433 1434 1436 1437 1438 1439 1439 1439 1439 1439 1438 1438 1439 1439 1439 1439 1440 1441 1443 1445 1447 1450 1452 1454 1457 1459 1460 1462 1463 1464 1464 1465 1465 1465 1465 1464 1463 1461 1459 1457 1455 1452
1429 1430 1431 1433 1434 1435 1435 1435 1436 1435 1435 1435 1434 1434 1434 1434 1435 1435 1436 1436 1438 1439 1442 1444 1447 1449 1452 1454 1456 1458 1459 1461 1461 1462 1462 1462 1462 1461 1460 1458 1456 1454 1451 1449
1427 1428 1429 1430 1431 1432 1432 1432 1432 1432 1431 1431 1430 1430 1430 1430 1430 1431 1431 1432 1433 1435 1437 1440 1442 1445 1447 1450 1452 1454 1456 1457 1458 1459 1459 1459 1459 1458 1456 1455 1453 1450 1448 1446
1426 1427 1427 1428 1429 1429 1429 1430 1429 1428 1428 1427 1426 1426 1426 1426 1426 1427 1428 1428 1429 1430 1432 1435 1437 1439 1442 1445 1447 1449 1451 1453 1454 1455 1455 1455 1455 1454 1453 1451 1449 1447 1445 1443
1424 1425 1425 1426 1426 1427 1427 1427 1426 1426 1425 1424 1423 1422 1422 1422 1423 1423 1424 1424 1425 1426 1428 1430 1432 1434 1437 1439 1442 1445 1447 1449 1450 1451 1452 1452 1451 1450 1449 1447 1445 1443 1441 1439
1423 1424 1424 1425 1425 1425 1425 1425 1424 1423 1422 1421 1420 1420 1420 1420 1420 1420 1420 1421 1421 1422 1424 1426 1427 1429 1432 1434 1437 1440 1442 1444 1446 1447 1448 1448 1447 1447 1445 1444 1442 1440 1438 1436
1423 1424 1424 1424 1424 1424 1424 1423 1423 1422 1421 1419 1419 1418 1417 1417 1417 1417 1417 1417 1418 1419 1420 1421 1423 1425 1427 1430 1433 1435 1438 1440 1442 1443 1444 1444 1443 1443 1441 1440 1438 1436 1434 1432
1424 1424 1424 1424 1424 1424 1423 1423 1422 1420 1419 1418 1417 1416 1416 1415 1415 1414 1414 1414 1415 1415 1416 1417 1419 1421 1423 1426 1428 1431 1434 1436 1438 1439 1440 1440 1439 1439 1437 1436 1434 1433 1431 1429
1425 1425 1425 1424 1424 1423 1422 1422 1420 1419 1418 1417 1416 1415 1414 1413 1412 1412 1411 1412 1411 1412 1412 1414 1415 1417 1419 1422 1425 1428 1430 1432 1434 1435 1436 1436 1436 1435 1434 1432 1431 1429 1428 1426
1426 1425 1425 1424 1423 1423 1422 1421 1420 1418 1417 1416 1415 1414 1412 1411 1410 1410 1409 1409 1408 1409 1410 1411 1412 1414 1416 1418 1421 1424 1426 1428 1430 1431 1432 1432 1432 1431 1430 1429 1427 1426 1425 1423
1426 1425 1424 1424 1423 1422 1421 1420 1419 1418 1416 1415 1414 1412 1411 1410 1409 1408 1407 1406 1406 1406 1407 1408 1410 1411 1413 1415 1418 1420 1422 1424 1426 1427 1428 1428 1428 1427 1426 1425 1424 1423 1421 1420
1425 1424 1423 1423 1422 1421 1420 1419 1417 1416 1415 1414 1412 1411 1410 1408 1407 1406 1405 1405 1404 1404 1405 1406 1407 1408 1410 1412 1414 1416 1418 1420 1421 1422 1423 1424 1424 1423 1422 1421 1420 1419 1418 1416
1423 1422 1422 1421 1420 1419 1418 1417 1416 1415 1413 1412 1411 1409 1408 1406 1405 1404 1403 1403 1402 1402 1402 1403 1404 1405 1406 1408 1410 1412 1414 1415 1417 1418 1419 1419 1419 1419 1418 1417 1416 1415 1414 1412